Location: El Rodeo
(32.3070°N, 116.9840°W)
Time: 00:17:11
(UTC+00:00)

Daily predictions for brighter satellites

Satellite Brightness Start Highest point End
(mag) Time Altitude Azimuth Time Altitude Azimuth Time Altitude Azimuth
Feng Yun 1-1 Rocket 4.4 03:02:07 10° SSE 03:07:38 81° WSW 03:13:05 10° NNW
Cosmos 1500 Rocket 4.0 03:04:31 10° NNW 03:08:54 70° W 03:13:18 10° S
Cosmos 2227 Rocket 3.7 03:05:02 10° NNE 03:09:13 21° ENE 03:13:22 10° ESE
Cosmos 1980 Rocket 3.4 03:07:05 10° SSE 03:11:10 21° E 03:15:16 10° NE
Cosmos 1400 Rocket 3.0 03:08:58 10° NNW 03:12:51 76° W 03:16:47 10° S
Cosmos 1812 4.1 03:11:42 10° SSW 03:15:20 44° W 03:18:59 10° N
Cosmos 1328 Rocket 4.1 03:14:24 10° SSE 03:18:21 36° E 03:22:18 10° NNE
H-2A R/B 2.8 03:15:38 10° NE 03:19:15 30° E 03:22:55 10° SSE
Cosmos 1486 Rocket 4.4 03:16:22 10° S 03:21:20 43° ESE 03:26:19 10° NNE
Cosmos 2369 4.4 03:16:31 10° SSE 03:21:24 31° ESE 03:26:18 10° NE
Cosmos 1814 Rocket 4.0 03:18:13 10° N 03:23:18 63° ENE 03:28:23 10° SSE
MetOp-A 4.0 03:21:59 10° SE 03:25:49 39° ENE 03:29:28 10° N
Cosmos 841 Rocket 4.2 03:23:54 10° NNW 03:28:55 55° WSW 03:33:57 10° S
Cosmos 1697 Rocket 2.7 03:23:56 10° S 03:29:33 72° ESE 03:35:12 10° NNE
CZ-4B R/B 2.6 03:29:14 10° NE 03:31:38 20° E 03:33:29 13° SE
Cosmos 2098 Rocket 3.6 03:30:37 10° NNW 03:33:22 36° W 03:36:02 10° SSW
USA 186 1.0 03:31:09 10° S 03:33:37 86° W 03:35:59 10° NNW
deb Chang Zheng 4 4.0 03:31:17 10° S 03:35:20 58° WSW 03:39:25 10° NNW
Gbstr 26 Del rocket 4.1 03:28:07 10° NW 03:35:36 88° NE 03:41:07 13° SE
Cosmos 2360 4.2 03:30:46 10° SSW 03:36:25 78° ESE 03:42:06 10° NNE
CSL-04 Debris 4.2 03:31:07 10° SSE 03:36:33 88° WSW 03:41:58 10° NNW
OBJECT-B 1.7 03:34:10 10° S 03:36:56 42° W 03:39:44 10° NNW
Cosmos 1151 Rocket 3.3 03:33:21 10° SSW 03:37:37 72° W 03:41:53 10° N
JB-3 4.5 03:37:32 10° NNE 03:41:38 58° E 03:45:42 10° S
Cosmos 1340 3.4 03:40:46 12° SSE 03:43:44 31° E 03:47:04 10° NNE
COBE Rocket 4.1 03:39:38 10° SSE 03:44:41 62° ENE 03:49:38 10° N
CZ-4 R/B 3.8 03:42:09 10° SSW 03:45:14 22° W 03:48:23 10° NW
ATLAS 2AS CENTAUR R/B 3.2 03:38:50 10° S 03:46:12 48° ESE 03:53:31 10° NE
Cosmos 2297 Rocket 2.2 03:40:39 10° NNW 03:46:17 68° ENE 03:51:08 14° SSE
Resurs 1-3 3.6 03:46:17 12° SSE 03:50:14 64° ENE 03:54:35 10° N
Cosmos 1503 Rocket 4.3 03:45:42 10° S 03:50:41 46° ESE 03:55:44 10° NNE
SJ-6B 3.0 03:47:15 10° S 03:51:04 67° W 03:54:50 10° NNW
Cosmos 1666 Rocket 3.5 03:48:03 10° N 03:52:29 83° E 03:56:51 10° S
H-2A R/B 2.9 03:48:30 10° S 03:52:53 66° WSW 03:57:09 10° NNW
SJ 16-02 2.3 03:52:33 19° SE 03:54:35 26° E 03:58:14 10° NE
Cosmos 1315 Rocket 2.7 03:52:17 10° N 03:56:21 88° E 03:59:46 14° S
SL-16 R/B 4.1 04:00:33 12° E 04:00:33 12° E 04:01:40 10° ENE
Cosmos 1633 Rocket 2.9 03:56:00 10° N 04:00:22 82° E 04:03:56 15° S
ATLAS 5 CENTAUR R/B 3.3 03:48:26 10° W 04:02:20 29° SSW 04:06:10 16° SSE
Cosmos 1072 Rocket 4.5 03:57:06 10° S 04:03:04 61° E 04:09:05 10° NNE
Cosmos 1743 3.7 04:01:02 10° NNE 04:04:20 28° E 04:05:10 26° ESE
SPOT 1/Viking Rocket 4.2 04:02:44 22° SE 04:05:28 38° ENE 04:10:13 10° N
Cosmos 1470 Rocket 3.5 04:07:49 10° N 04:12:06 61° E 04:14:11 28° SSE
Meteor 1-27 Rocket 3.8 04:09:22 10° S 04:15:06 88° W 04:20:58 10° N
OAO 3 Rocket 3.4 04:11:20 10° WNW 04:16:14 70° N 04:19:18 23° E
DASH 3.7 04:02:15 10° W 04:16:50 48° SSW 04:18:48 29° SSE
Resurs 01 Rocket 1.6 04:16:57 31° SSE 04:18:57 63° ENE 04:23:18 10° N
Cosmos 1515 Rocket 3.6 04:14:44 10° S 04:19:04 79° W 04:23:28 10° N
Cosmos 2278 3.8 04:14:22 10° S 04:19:51 54° ESE 04:25:21 10° NNE
Cosmos 2208 Rocket 4.5 04:15:37 10° NNW 04:20:57 61° WSW 04:24:53 18° S
NOSS 3-2 (C) 4.4 04:13:40 10° NW 04:21:41 70° WSW 04:28:22 19° SSE
Ariane Rocket 3.2 04:20:59 31° SE 04:23:09 53° ENE 04:28:06 10° N
Terra 4.0 04:23:27 11° ENE 04:23:52 11° ENE 04:25:10 10° NE
Cosmos 2219 3.1 04:20:24 10° NNW 04:26:02 87° ENE 04:28:56 30° SSE
CENTAUR R/B 4.2 04:18:06 10° NW 04:26:13 44° WSW 04:34:23 11° S
Cosmos 921 Rocket 3.9 04:24:52 10° N 04:28:58 34° ENE 04:29:35 32° E
Landsat 7 4.3 04:26:48 19° S 04:30:04 57° W 04:34:43 10° NNW
SWIFT 4.4 04:27:52 10° SW 04:29:15 14° SSW 04:29:15 14° SSW
Cosmos 2034 Rocket 4.0 04:27:22 22° S 04:31:34 67° E 04:37:50 10° NNE
CARTOSAT-1 4.2 04:31:39 35° E 04:32:10 37° ENE 04:36:09 10° N
Cosmos 2082 4.1 04:27:11 10° N 04:32:36 47° ENE 04:34:24 35° ESE
Cosmos 2263 Rocket 3.5 04:30:19 10° N 04:34:39 23° ENE 04:35:57 21° E
Cosmos 2228 Rocket 3.5 04:36:11 43° ESE 04:36:32 44° E 04:40:51 10° NNE
Meteor 1-11 Rocket 4.0 04:31:05 10° NNW 04:37:02 72° W 04:40:52 23° S
Okean 1 3.2 04:37:50 60° SE 04:38:20 69° E 04:42:20 10° NNE
Cosmos 1184 Rocket 4.2 04:39:41 23° SW 04:40:54 33° W 04:43:41 10° NNW
Cosmos 1536 3.1 04:39:24 10° NNW 04:43:23 64° W 04:44:32 42° SSW
RESURS DK-1 2.5 04:40:29 17° SSW 04:43:37 70° WNW 04:47:44 10° NNE
ASTRO E2 3.2 04:42:53 10° W 04:46:10 44° SW 04:46:10 44° SW
SL-4 R/B 2.3 04:44:31 10° NW 04:48:58 59° NE 04:49:24 55° ENE
BREEZE-M DEB (TANK) 4.3 04:46:02 10° WNW 04:49:37 42° SW 04:51:26 33° S
USA 245 4.4 04:50:02 45° SE 04:51:40 64° ENE 04:57:53 10° N
Cosmos 2227 Rocket 3.0 04:48:04 10° NW 04:53:25 45° WSW 04:56:08 26° SSW
Cosmos 1980 Rocket 3.4 04:49:31 10° SW 04:54:47 41° WNW 05:00:06 10° N
Cosmos 1777 Rocket 4.0 04:53:11 27° SSW 04:56:05 82° WNW 05:01:21 10° NNE
Spot 2 Rocket 4.0 04:56:36 41° E 04:56:51 41° ENE 05:01:34 10° N
SPOT 3 Rocket 3.4 04:59:23 60° SE 05:00:16 77° ENE 05:05:25 10° N
ARIANE 5 R/B 4.4 05:01:18 20° NE 05:01:18 20° NE 05:03:53 10° NNE
CZ-4B R/B 4.4 05:01:36 10° NW 05:02:59 12° WNW 05:04:21 10° W
Cosmos 2322 Rocket 3.2 05:04:59 30° ENE 05:04:59 30° ENE 05:08:30 10° NE
Cosmos 1809 Rocket 4.4 04:57:36 10° N 05:03:46 89° W 05:05:42 47° S
Cosmos 389 Rocket 3.6 05:00:45 10° NNW 05:04:00 38° W 05:04:00 38° W
Cosmos 773 Rocket 4.0 05:00:34 10° N 05:05:42 58° ENE 05:05:56 57° E
Meteor 2-4 Rocket 3.7 05:10:31 63° SE 05:11:12 70° E 05:16:52 10° NNE
Cosmos 1975 4.3 05:09:37 10° N 05:11:59 28° NE 05:11:59 28° NE
USA 215 4.4 05:09:43 10° ENE 05:12:52 26° E 05:12:52 26° E
Helios 1A Rocket 3.5 05:19:41 52° N 05:19:41 52° N 05:22:46 10° NNW
Cosmos 158 Rocket 4.4 05:23:50 10° N 05:28:23 51° NE 05:28:23 51° NE
CZ-3 Stage 3 3.4 05:19:53 10° W 05:28:02 51° WSW 05:28:02 51° WSW
USA 81 4.0 05:32:10 74° NNE 05:32:10 74° NNE 05:37:00 10° N
ERS-1 Rocket 3.0 05:32:27 72° NNE 05:32:27 72° NNE 05:37:01 10° N
SJ 16-02 3.8 05:29:53 10° WSW 05:33:03 20° WNW 05:36:15 10° NNW
Cosmos 1634 Rocket 3.9 05:33:09 63° SSW 05:34:11 81° W 05:40:24 10° N
Cosmos 1092 Rocket 3.8 05:28:42 10° N 05:34:53 88° W 05:35:23 77° S
ATLAS 2AS CENTAUR R/B 4.4 05:30:18 10° WSW 05:37:18 35° NW 05:44:10 10° NNE
CZ-2C R/B 4.3 05:34:16 10° N 05:38:55 55° WNW 05:38:58 55° WNW
Cosmos 2142 Rocket 4.4 05:39:20 70° E 05:39:20 70° E 05:45:39 10° N
Meteor 2-15 Rocket 4.4 05:40:16 68° ENE 05:40:16 68° ENE 05:45:56 10° NNE
SL-16 R/B 2.4 05:42:19 62° WSW 05:42:56 67° WNW 05:48:36 10° NNE
Cosmos 2237 4.4 05:46:08 63° NE 05:46:08 63° NE 05:50:56 10° NNE
Cosmos 2026 Rocket 4.1 05:53:29 10° NNW 05:59:36 64° W 05:59:48 64° WSW
Terra 2.8 06:02:19 44° NW 06:02:19 44° NW 06:05:45 10° NNW
ISS -0.4 05:58:25 10° NNW 05:58:52 13° NNW 05:58:52 13° NNW
SPOT 5 4.0 06:01:47 42° W 06:01:47 42° W 06:06:18 10° NNW
Cosmos 2360 Rocket 2.9 06:09:14 46° NNE 06:09:14 46° NNE 06:13:07 10° NNE
ATLAS 3B R/B 3.2 06:01:42 10° NNW 06:09:02 56° ENE 06:09:35 55° ENE
Cosmos 2263 Rocket 3.3 06:13:31 10° NW 06:17:39 36° W 06:17:39 36° W
H-2A ROCKET BODY 4.1 06:00:46 10° W 06:37:44 56° SSW 06:38:16 56° SSW
ATLAS CENTAUR R/B 4.1 06:35:46 10° N 06:37:47 17° NNE 06:37:47 17° NNE
Cosmos 2322 Rocket 3.9 06:46:43 24° WNW 06:47:28 25° WNW 06:52:04 10° N
Cosmos 2333 Rocket 3.4 06:55:08 39° N 06:55:08 39° N 06:58:41 10° NNE
Cosmos 1844 Rocket 3.9 06:52:45 10° NNW 06:56:11 39° NNW 06:56:11 39° NNW
USA 215 3.9 06:52:27 10° NNE 06:58:43 50° NW 07:00:09 43° WNW
ADEOS Rocket 4.4 07:00:11 28° NE 07:00:11 28° NE 07:03:53 10° N
Cosmos 2219 Rocket 3.5 07:13:11 36° N 07:13:11 36° N 07:16:27 10° NNE
Cosmos 2237 Rocket 3.9 07:43:57 26° NE 07:43:57 26° NE 07:46:30 10° NNE
COSMOS 2428 4.1 07:47:44 34° NNW 07:47:44 34° NNW 07:51:16 10° N
ATLAS 3B R/B 4.5 07:53:19 10° NW 07:56:50 22° W 07:56:50 22° W
CZ-4C R/B 3.3 07:51:47 10° NNW 07:59:27 62° ENE 07:59:53 61° ENE
NOSS 3-1 (C) 4.2 08:03:36 10° NNW 08:10:48 74° NW 08:10:48 74° NW
Cosmos 2278 Rocket 3.5 08:14:03 10° N 08:17:53 37° NNE 08:17:53 37° NNE
Lacrosse 5 3.9 08:22:52 23° NE 08:22:52 23° NE 08:24:45 10° NE
SL-16 R/B 3.8 08:31:39 29° ENE 08:31:39 29° ENE 08:34:47 10° NE
SL-16 R/B 4.3 08:46:14 19° E 08:48:34 24° ENE 08:53:22 10° NNE
COSMOS 2455 3.7 09:01:17 41° ENE 09:01:17 41° ENE 09:05:47 10° NE
CZ-2D R/B 3.0 09:03:34 10° NNE 09:07:28 45° NE 09:07:28 45° NE
Lacrosse 5 rocket 3.9 09:12:11 18° NNE 09:12:11 18° NNE 09:13:18 10° NNE
USA 267 3.6 09:13:29 54° WNW 09:13:29 54° WNW 09:18:26 10° NW
Meteor 2-5 Rocket 4.3 09:22:35 52° NNW 09:22:35 52° NNW 09:27:02 10° N
Cosmos 2237 Rocket 4.1 09:25:45 19° NW 09:25:45 19° NW 09:29:21 10° NNW
USA 229 DEB 4.2 09:21:19 10° NW 09:27:30 52° W 09:27:30 52° W
USA 229 4.2 09:21:24 10° NW 09:27:37 53° W 09:27:37 53° W
Resurs 1-4 Rocket 2.6 09:28:12 10° N 09:32:24 56° N 09:32:24 56° N
Nadezhda 1 Rocket 4.1 09:38:22 65° ESE 09:38:54 68° E 09:45:10 10° NNE
NOSS 3-3 (A) 4.1 09:39:55 53° E 09:39:55 53° E 09:45:20 10° NE
NOSS 3-3 (C) 4.1 09:40:00 52° E 09:40:00 52° E 09:45:25 10° NE
IDEFIX/ARIANE 42P 3.0 09:40:01 10° NNE 09:45:05 55° E 09:45:05 55° E
Cosmos 1943 Rocket 2.3 09:40:24 10° NNW 09:46:04 68° ENE 09:46:34 64° E
ADEOS II 2.2 09:41:24 10° NNE 09:46:18 69° ENE 09:46:18 69° ENE
CZ-4C R/B 4.4 09:41:12 10° NW 09:44:59 24° W 09:44:59 24° W
MOS 1 Rocket 4.0 09:49:39 46° NE 09:49:39 46° NE 09:53:07 10° N
Cosmos 2297 4.1 09:48:17 10° NNW 09:53:57 60° ENE 09:55:49 41° SE
IRS-1D 4.5 09:51:00 10° NNE 09:55:57 39° E 09:56:49 37° ESE
ATLAS 2A CENTAUR R/B 4.4 09:50:14 36° SW 09:59:38 59° S 10:09:02 10° E
Cosmos 2278 Rocket 4.5 09:59:21 10° WNW 09:59:42 11° WNW 09:59:42 11° WNW
Lacrosse 5 3.9 10:02:02 16° NW 10:03:07 17° NW 10:06:26 10° N
Cosmos 1455 4.3 10:00:58 10° NNW 10:02:19 21° NNW 10:02:19 21° NNW
NPP 4.3 10:04:17 10° N 10:09:05 41° WNW 10:09:05 41° WNW
SL-16 R/B 3.6 10:13:31 24° WNW 10:13:44 24° WNW 10:18:14 10° N
Cosmos 1271 Rocket 3.6 10:10:19 10° N 10:13:07 46° N 10:13:07 46° N
Cosmos 2369 Rocket 3.2 10:11:12 10° N 10:16:31 43° ENE 10:21:47 10° SE
Meteor 1-21 Rocket 4.1 10:17:56 59° S 10:19:03 84° E 10:24:40 10° N
Cosmos 2154 Rocket 3.9 10:13:38 10° N 10:19:58 74° W 10:21:27 53° SSW
Cosmos 2228 3.1 10:18:00 10° N 10:22:19 68° E 10:22:40 65° ESE
SL-16 R/B 2.8 10:31:19 44° WSW 10:31:46 45° W 10:37:42 10° NNW
Cosmos 1603 3.6 10:35:48 51° SW 10:37:08 72° WNW 10:42:48 10° NNE
Cosmos 1371 Rocket 4.2 10:35:37 40° S 10:37:21 65° ESE 10:42:28 10° NNE
GPS 2-04 Rocket1 2.7 10:39:11 61° NE 10:39:11 61° NE 10:42:12 10° ENE
Cosmos 1328 3.6 10:41:59 75° W 10:42:02 75° W 10:46:00 10° N
COSMOS 2455 4.3 10:44:25 21° W 10:46:09 23° NW 10:50:54 10° N
Cosmos 1140 Rocket 4.3 10:41:27 10° N 10:46:33 50° ENE 10:51:35 10° SE
CZ-2D R/B 4.0 10:45:33 10° NNW 10:48:15 14° WNW 10:48:47 14° WNW
SeaSat 1 4.3 10:45:03 10° NE 10:49:01 24° ESE 10:52:52 10° SSE
DNEPR-1 R/B 4.2 10:50:23 35° WNW 10:50:54 36° WNW 10:54:59 10° NNE
Helios 1B rocket 2.4 10:48:08 10° NNE 10:52:12 75° ESE 10:53:29 42° S
MOS 1-B Rocket 4.4 10:47:38 10° SSE 10:53:08 57° ENE 10:58:40 10° N
Cosmos 1825 4.3 10:51:11 10° SE 10:54:08 23° E 10:57:05 10° NE
Cosmos 1241 Rocket 4.4 10:56:54 33° SW 10:59:49 76° WNW 11:06:01 10° NNE
Cosmos 1606 Rocket 3.5 10:55:28 10° NNW 10:59:49 65° W 11:01:20 38° SSW
OAO 2 Rocket 3.3 11:00:43 29° W 11:03:13 74° N 11:08:09 10° ENE
Helios 1A 4.0 11:04:40 28° W 11:04:40 28° W 11:07:47 10° NW
Cosmos 2218 Rocket 4.1 10:58:41 10° N 11:04:58 79° E 11:11:18 10° S
Cosmos 1943 4.1 11:05:15 26° WSW 11:07:16 34° WNW 11:12:24 10° N
Lacrosse 4 Rocket 1.6 11:07:58 28° S 11:10:08 68° ESE 11:14:22 10° NNE
Cosmos 1408 2.4 11:09:12 39° SSW 11:10:26 77° W 11:14:03 10° N
Cosmos 1624 Rocket 4.1 11:07:53 30° SW 11:10:27 64° WNW 11:15:44 10° N
SEDSat Delta rocket 4.0 11:08:03 25° WSW 11:12:17 78° S 11:19:01 10° E
Meteor 1-11 4.2 11:09:14 22° SSW 11:13:01 74° W 11:18:49 10° N
Cosmos 2181 Rocket 4.1 11:10:08 24° SSW 11:13:52 58° W 11:19:58 10° N
Cosmos 1892 2.5 11:12:43 30° S 11:14:28 82° W 11:18:15 10° N
Cosmos 1959 Rocket 4.4 11:11:17 10° N 11:17:31 85° W 11:23:39 10° S
ARIANE 5 R/B 2.8 11:12:56 10° NNE 11:17:56 65° ESE 11:22:42 11° S
IRS-1C 4.2 11:13:51 10° NNE 11:19:12 83° ESE 11:23:53 14° S
Okean 1-7 Rocket 3.6 11:16:36 16° S 11:20:05 81° E 11:24:29 10° N
Meteor 2-1 Rocket 4.4 11:14:58 10° NNW 11:20:26 49° W 11:24:41 16° SSW
CBERS-1 4.5 11:16:30 10° N 11:21:20 44° WNW 11:24:04 23° SW
Cosmos 2056 Rocket 3.8 11:19:47 26° SW 11:22:26 48° WNW 11:27:29 10° N
OAO 3 Copernicus 4.2 11:20:38 25° WSW 11:23:34 80° SSE 11:28:36 10° ENE
IDEFIX/ARIANE 42P 4.4 11:21:21 10° NNW 11:24:13 15° WNW 11:25:53 13° W
ADEOS II 4.1 11:24:01 10° NW 11:25:38 11° WNW 11:27:14 10° W
Cosmos 864 Rocket 4.4 11:20:57 10° N 11:27:05 70° W 11:33:09 10° S
Cosmos 1943 Rocket 4.1 11:27:00 10° WNW 11:28:00 11° W 11:28:00 11° W
ALOS 2.2 11:25:36 10° N 11:30:14 70° WNW 11:34:01 15° SSW
FENGYUN 3A 3.7 11:25:24 10° N 11:30:42 61° WNW 11:35:03 15° SSW
ATLAS 3B CENTAUR R/B 3.0 11:31:03 15° S 11:33:02 22° SSE 11:37:18 10° E
Cosmos 1602 Rocket 4.1 11:29:20 10° S 11:33:43 59° E 11:38:06 10° NNE
Cosmos 2263 4.4 11:33:09 10° NNW 11:38:35 47° WSW 11:44:02 10° S
Cosmos 1726 Rocket 4.5 11:34:57 10° NNW 11:38:42 28° W 11:41:07 17° SW
Cosmos 1190 Rocket 4.0 11:37:02 10° NNW 11:42:19 75° WSW 11:47:36 10° S
Meteor 1-29 2.9 11:43:11 10° N 11:46:23 55° WNW 11:49:07 13° SSW
CZ-2C R/B 2.9 11:45:15 10° N 11:50:04 45° WNW 11:54:36 11° SW
PAYLOAD A 4.4 11:49:09 10° N 11:53:36 41° WNW 11:58:11 10° SW
